Погода в Нарышкине

Россия / Орловская область     53°12′49″N   36°20′00″E
темп.,
°C
ветер,
м/с
пор.,
м/с
влажн.,
%
обл.,
%
осадки,
мм/ч
давл.,
гПа
погр.,
м
28 ноября, вс
вс2800:00+4ю6139686 0.0 1002413
03:00+5ююз61296100 0.1 1002560
06:00+5юз598327 0.0 1004330
09:00+1юз499535 0.0 1006227
12:00+3юз488262 0.0 1007366
15:00+4ююз248361 0.0 1008116
18:00+2ю2388100 0.0 100926
21:00+2ююв4996100 0.0 1008167
29 ноября, пн
пн2900:00+4ююв51093100 0.0 1008457
03:00+4юв51193100 0.0 1006294
06:00+4юв41195100 0.0 1004247
09:00+3юв389779 0.0 1003159
12:00+6юв3995100 0.0 1001280
15:00+5вюв5998100 0.0 998362
18:00+5юв4999100 0.0 995281
21:00+6вюв51099100 0.6 989244
30 ноября, вт
вт3000:00+7в51198100 3.6 981442
03:00+7юз5999100 9.3 976293
06:00+6юз61398100 3.1 975621
09:00+1юз101698100 12.4 977587
12:00+1зюз132297100 4.9 981982
15:00+1зюз122088100 7.0 9851024
18:000зюз101685100 0.0 9891163
21:00−1зюз101684100 0.1 9901103
1 декабря, ср
ср100:00−1зюз8138299 0.1 9901100
03:00−2зюз81280100 0.1 992986
06:00−3зюз7138489 0.0 993778
09:00−2зюз6108595 0.1 9941080
12:00−2зюз6107872 0.1 9951129
15:00−2зюз51081100 0.2 995881
18:00−2з5107971 0.0 996659
21:00−4з59847 0.0 998549
2 декабря, чт
чт200:00−5з59868 0.0 1000511
03:00−5юз489298 0.0 1001338
06:00−4ююз5108995 0.0 1001382
09:00−3ю61495100 0.1 999495
12:000ююз81597100 1.4 998760
15:00+1юз71597100 2.1 998693
18:00+2юз71498100 0.1 1000557
21:00+2юз61497100 0.1 1001478